| time (UTC) | temp C | wind direction | speed KPH | gust KPH | rain 1hr cm | rain 24hr cm | rain mn cm | humidity % | barometer mb |
| 20260510022016 | 11 | 216 | 4.8 | 9.7 | 0.00 | 1.50 | 1.50 | 94 | 1006.2 |
| 20260510021017 | 11 | 214 | 4.8 | 9.7 | 0.00 | 1.50 | 1.50 | 94 | 1006.0 |
| 20260510020017 | 11 | 207 | 6.4 | 17.7 | 0.00 | 1.50 | 1.50 | 94 | 1005.9 |
| 20260510015017 | 11 | 189 | 6.4 | 11.3 | 0.00 | 1.50 | 1.50 | 94 | 1005.8 |
| 20260510014017 | 11 | 196 | 6.4 | 12.9 | 0.00 | 1.50 | 1.50 | 94 | 1005.8 |
| 20260510013018 | 11 | 187 | 8.0 | 12.9 | 0.00 | 1.50 | 1.50 | 94 | 1005.6 |
| 20260510012018 | 11 | 180 | 8.0 | 14.5 | 0.00 | 1.50 | 1.50 | 93 | 1005.5 |
| 20260510011018 | 11 | 188 | 8.0 | 16.1 | 0.00 | 1.50 | 1.50 | 93 | 1005.5 |
| 20260510010018 | 11 | 182 | 9.7 | 16.1 | 0.00 | 1.50 | 1.50 | 94 | 1005.4 |
| 20260510005018 | 11 | 184 | 8.0 | 14.5 | 0.00 | 1.50 | 1.50 | 94 | 1005.2 |
| 20260510004018 | 11 | 190 | 8.0 | 12.9 | 0.00 | 1.50 | 1.50 | 94 | 1004.8 |
| 20260510003018 | 11 | 187 | 6.4 | 11.3 | 0.03 | 1.50 | 1.50 | 93 | 1004.7 |
| 20260510002019 | 11 | 186 | 6.4 | 14.5 | 0.18 | 1.50 | 1.50 | 93 | 1004.6 |
| 20260510001019 | 11 | 183 | 9.7 | 17.7 | 0.38 | 1.50 | 1.50 | 93 | 1004.5 |
| 20260510000019 | 11 | 178 | 8.0 | 16.1 | 0.58 | 1.50 | 1.50 | 92 | 1004.6 |
| 20260509235019 | 11 | 181 | 8.0 | 14.5 | 0.74 | 1.50 | 1.50 | 93 | 1004.6 |
| 20260509234016 | 10 | 249 | 3.2 | 9.7 | 1.27 | 1.50 | 1.50 | 93 | 1004.1 |
| 20260509233016 | 10 | 171 | 6.4 | 16.1 | 1.47 | 1.47 | 1.47 | 93 | 1004.2 |
| 20260509231017 | 11 | 290 | 6.4 | 14.5 | 1.12 | 1.12 | 1.12 | 92 | 1005.5 |
| 20260509230017 | 11 | 265 | 8.0 | 17.7 | 0.89 | 0.89 | 0.89 | 92 | 1005.7 |
| 20260509225037 | 12 | 289 | 14.5 | 35.4 | 0.76 | 0.76 | 0.76 | 90 | 1005.5 |
| 20260509224018 | 15 | 282 | 9.7 | 32.2 | 0.23 | 0.23 | 0.23 | 79 | 1004.6 |
| 20260509223018 | 16 | 245 | 9.7 | 17.7 | 0.00 | 0.00 | 0.00 | 75 | 1003.1 |
| 20260509222018 | 16 | 279 | 9.7 | 17.7 | 0.00 | 0.00 | 0.00 | 74 | 1002.7 |
| 20260509221018 | 16 | 271 | 4.8 | 11.3 | 0.00 | 0.00 | 0.00 | 75 | 1002.6 |
| 20260509220018 | 16 | 281 | 6.4 | 12.9 | 0.00 | 0.00 | 0.00 | 74 | 1002.8 |
| 20260509215018 | 16 | 287 | 9.7 | 14.5 | 0.00 | 0.00 | 0.00 | 74 | 1002.9 |
| 20260509214019 | 16 | 241 | 8.0 | 16.1 | 0.00 | 0.00 | 0.00 | 74 | 1003.2 |
| 20260509213019 | 16 | 257 | 9.7 | 16.1 | 0.00 | 0.00 | 0.00 | 74 | 1003.1 |
| 20260509212019 | 16 | 262 | 9.7 | 17.7 | 0.00 | 0.00 | 0.00 | 74 | 1003.0 |
| 20260509211039 | 16 | 267 | 8.0 | 16.1 | 0.00 | 0.00 | 0.00 | 74 | 1003.2 |
| 20260509210019 | 16 | 253 | 8.0 | 17.7 | 0.00 | 0.00 | 0.00 | 74 | 1003.5 |
| 20260509205019 | 16 | 217 | 12.9 | 20.9 | 0.00 | 0.00 | 0.00 | 73 | 1003.6 |
| 20260509204036 | 16 | 227 | 11.3 | 19.3 | 0.00 | 0.00 | 0.00 | 72 | 1003.6 |
| 20260509203016 | 16 | 205 | 11.3 | 20.9 | 0.00 | 0.00 | 0.00 | 72 | 1003.7 |
| 20260509202017 | 16 | 199 | 11.3 | 20.9 | 0.00 | 0.00 | 0.00 | 72 | 1003.6 |
| 20260509201017 | 16 | 211 | 11.3 | 20.9 | 0.00 | 0.00 | 0.00 | 72 | 1003.9 |
| 20260509200017 | 17 | 207 | 9.7 | 20.9 | 0.00 | 0.00 | 0.00 | 71 | 1003.9 |
| 20260509195018 | 17 | 195 | 9.7 | 17.7 | 0.00 | 0.00 | 0.00 | 70 | 1003.9 |
| 20260509194017 | 16 | 305 | 9.7 | 20.9 | 0.00 | 0.00 | 0.00 | 69 | 1004.0 |
| 20260509193138 | 16 | 311 | 8.0 | 17.7 | 0.00 | 0.00 | 0.00 | 69 | 1003.9 |
| 20260509192018 | 17 | 275 | 11.3 | 19.3 | 0.00 | 0.00 | 0.00 | 69 | 1004.3 |
| 20260509191018 | 17 | 202 | 8.0 | 19.3 | 0.00 | 0.00 | 0.00 | 70 | 1004.4 |
| 20260509190018 | 16 | 157 | 16.1 | 24.1 | 0.00 | 0.00 | 0.00 | 70 | 1004.6 |
| 20260509185018 | 16 | 151 | 11.3 | 19.3 | 0.00 | 0.00 | 0.00 | 73 | 1004.6 |
| 20260509184019 | 16 | 155 | 14.5 | 20.9 | 0.00 | 0.00 | 0.00 | 71 | 1004.8 |
| 20260509183039 | 16 | 307 | 9.7 | 17.7 | 0.00 | 0.00 | 0.00 | 70 | 1004.9 |
| 20260509182019 | 16 | 197 | 14.5 | 25.7 | 0.00 | 0.00 | 0.00 | 70 | 1004.7 |
| 20260509181019 | 16 | 212 | 12.9 | 24.1 | 0.00 | 0.00 | 0.00 | 70 | 1004.8 |
| 20260509180019 | 16 | 209 | 11.3 | 20.9 | 0.00 | 0.00 | 0.00 | 72 | 1004.9 |
| 20260509175019 | 16 | 218 | 11.3 | 25.7 | 0.00 | 0.00 | 0.00 | 72 | 1004.9 |
| 20260509174036 | 15 | 225 | 11.3 | 17.7 | 0.00 | 0.00 | 0.00 | 75 | 1005.2 |
| 20260509173017 | 16 | 196 | 14.5 | 22.5 | 0.00 | 0.00 | 0.00 | 74 | 1005.5 |
| 20260509172017 | 15 | 223 | 11.3 | 20.9 | 0.00 | 0.00 | 0.00 | 75 | 1005.7 |
| 20260509171017 | 15 | 213 | 12.9 | 19.3 | 0.00 | 0.00 | 0.00 | 77 | 1005.8 |
| 20260509170018 | 15 | 199 | 9.7 | 17.7 | 0.00 | 0.00 | 0.00 | 77 | 1005.8 |
| 20260509165017 | 15 | 230 | 9.7 | 22.5 | 0.00 | 0.00 | 0.00 | 76 | 1005.8 |
| 20260509164017 | 15 | 211 | 9.7 | 17.7 | 0.00 | 0.00 | 0.00 | 74 | 1005.9 |
| 20260509163038 | 15 | 185 | 11.3 | 20.9 | 0.00 | 0.00 | 0.00 | 74 | 1005.9 |
| 20260509162018 | 15 | 145 | 11.3 | 16.1 | 0.00 | 0.00 | 0.00 | 76 | 1006.1 |
| 20260509161018 | 15 | 0.0 | 0.0 | 0.00 | 0.00 | 0.00 | 75 | 1006.1 | |
| 20260509160018 | 15 | 146 | 12.9 | 17.7 | 0.00 | 0.00 | 0.00 | 77 | 1006.1 |
| 20260509155018 | 15 | 152 | 12.9 | 19.3 | 0.00 | 0.00 | 0.00 | 78 | 1006.0 |
| 20260509154019 | 15 | 148 | 11.3 | 16.1 | 0.00 | 0.00 | 0.00 | 77 | 1006.1 |
| 20260509153039 | 15 | 202 | 8.0 | 17.7 | 0.00 | 0.00 | 0.00 | 78 | 1006.2 |
| 20260509152019 | 14 | 205 | 6.4 | 14.5 | 0.00 | 0.00 | 0.00 | 79 | 1006.2 |
| 20260509151020 | 14 | 199 | 8.0 | 17.7 | 0.00 | 0.00 | 0.00 | 80 | 1006.3 |
| 20260509150019 | 14 | 199 | 9.7 | 17.7 | 0.00 | 0.00 | 0.00 | 79 | 1006.3 |
| 20260509145016 | 14 | 190 | 8.0 | 17.7 | 0.00 | 0.00 | 0.00 | 81 | 1006.4 |
| 20260509144017 | 14 | 183 | 9.7 | 17.7 | 0.00 | 0.00 | 0.00 | 81 | 1006.3 |
| 20260509143017 | 14 | 190 | 9.7 | 16.1 | 0.00 | 0.00 | 0.00 | 81 | 1006.4 |
| 20260509142017 | 13 | 193 | 8.0 | 14.5 | 0.00 | 0.00 | 0.00 | 83 | 1006.4 |
| 20260509141017 | 13 | 189 | 8.0 | 12.9 | 0.00 | 0.00 | 0.00 | 84 | 1006.4 |
| 20260509140018 | 13 | 173 | 9.7 | 14.5 | 0.00 | 0.00 | 0.00 | 85 | 1006.5 |
| 20260509135018 | 12 | 172 | 8.0 | 12.9 | 0.00 | 0.00 | 0.00 | 86 | 1006.7 |
| 20260509134018 | 12 | 170 | 8.0 | 14.5 | 0.00 | 0.00 | 0.00 | 86 | 1006.8 |
| 20260509133018 | 12 | 173 | 8.0 | 14.5 | 0.00 | 0.00 | 0.00 | 86 | 1006.8 |
| 20260509132018 | 12 | 157 | 6.4 | 12.9 | 0.00 | 0.00 | 0.00 | 86 | 1006.8 |
| 20260509131018 | 12 | 166 | 8.0 | 16.1 | 0.00 | 0.00 | 0.00 | 86 | 1006.8 |
| 20260509130058 | 12 | 161 | 6.4 | 12.9 | 0.00 | 0.00 | 0.00 | 87 | 1006.7 |
| 20260509125018 | 12 | 171 | 8.0 | 16.1 | 0.00 | 0.00 | 0.00 | 88 | 1006.7 |
| 20260509124018 | 11 | 183 | 4.8 | 12.9 | 0.00 | 0.00 | 0.00 | 89 | 1006.7 |
| 20260509123019 | 11 | 170 | 6.4 | 14.5 | 0.00 | 0.00 | 0.00 | 90 | 1006.9 |
| 20260509122019 | 11 | 181 | 4.8 | 11.3 | 0.00 | 0.00 | 0.00 | 91 | 1007.0 |
| 20260509121019 | 10 | 178 | 4.8 | 12.9 | 0.00 | 0.00 | 0.00 | 92 | 1007.0 |
| 20260509120039 | 10 | 168 | 6.4 | 12.9 | 0.00 | 0.00 | 0.00 | 93 | 1006.9 |
| 20260509115017 | 9 | 163 | 4.8 | 9.7 | 0.00 | 0.03 | 0.00 | 96 | 1006.9 |
| 20260509114017 | 8 | 171 | 3.2 | 8.0 | 0.00 | 0.03 | 0.00 | 98 | 1006.9 |
| 20260509113017 | 7 | 163 | 1.6 | 4.8 | 0.00 | 0.03 | 0.00 | 100 | 1006.9 |
| 20260509112017 | 6 | 22 | 0.0 | 1.6 | 0.00 | 0.05 | 0.00 | 99 | 1006.9 |
| 20260509111037 | 5 | 39 | 1.6 | 3.2 | 0.00 | 0.10 | 0.00 | 99 | 1006.9 |
| 20260509110017 | 5 | 71 | 1.6 | 3.2 | 0.00 | 0.18 | 0.00 | 99 | 1007.0 |
| 20260509105017 | 5 | 10 | 1.6 | 1.6 | 0.00 | 0.28 | 0.00 | 98 | 1007.0 |
| 20260509104017 | 4 | 3 | 1.6 | 3.2 | 0.00 | 0.33 | 0.00 | 98 | 1007.2 |
| 20260509103018 | 4 | 356 | 1.6 | 3.2 | 0.00 | 0.33 | 0.00 | 98 | 1007.1 |
| 20260509102018 | 3 | 17 | 1.6 | 3.2 | 0.00 | 0.36 | 0.00 | 98 | 1007.1 |
| 20260509101018 | 3 | 122 | 0.0 | 3.2 | 0.00 | 0.36 | 0.00 | 97 | 1007.1 |
| 20260509100018 | 3 | 56 | 0.0 | 1.6 | 0.00 | 0.38 | 0.00 | 97 | 1007.1 |
| 20260509095018 | 3 | 13 | 0.0 | 3.2 | 0.00 | 0.38 | 0.00 | 96 | 1007.2 |
| 20260509094019 | 4 | 4 | 0.0 | 1.6 | 0.00 | 0.38 | 0.00 | 96 | 1007.1 |
| 20260509093018 | 3 | 117 | 0.0 | 3.2 | 0.00 | 0.38 | 0.00 | 96 | 1007.1 |
| 20260509092039 | 3 | 7 | 0.0 | 1.6 | 0.00 | 0.38 | 0.00 | 95 | 1007.1 |
| 20260509091019 | 3 | 5 | 0.0 | 1.6 | 0.00 | 0.38 | 0.00 | 94 | 1007.1 |
| 20260509090019 | 3 | 11 | 1.6 | 3.2 | 0.00 | 0.38 | 0.00 | 93 | 1007.2 |
| 20260509085016 | 4 | 20 | 1.6 | 3.2 | 0.00 | 0.38 | 0.00 | 93 | 1007.2 |
| 20260509084017 | 4 | 12 | 1.6 | 3.2 | 0.00 | 0.38 | 0.00 | 92 | 1007.2 |
| 20260509083017 | 4 | 12 | 0.0 | 1.6 | 0.00 | 0.38 | 0.00 | 92 | 1007.3 |
| 20260509082016 | 4 | 95 | 1.6 | 3.2 | 0.00 | 0.38 | 0.00 | 93 | 1007.3 |
| 20260509081017 | 3 | 79 | 0.0 | 1.6 | 0.00 | 0.38 | 0.00 | 95 | 1007.3 |
| 20260509080037 | 3 | 356 | 1.6 | 3.2 | 0.00 | 0.38 | 0.00 | 94 | 1007.4 |
| 20260509075017 | 3 | 21 | 0.0 | 1.6 | 0.00 | 0.38 | 0.00 | 95 | 1007.4 |
| 20260509074018 | 3 | 16 | 1.6 | 3.2 | 0.00 | 0.38 | 0.00 | 95 | 1007.5 |
| 20260509073017 | 3 | 17 | 0.0 | 3.2 | 0.00 | 0.38 | 0.00 | 95 | 1007.5 |
| 20260509072018 | 3 | 64 | 0.0 | 1.6 | 0.00 | 0.38 | 0.00 | 96 | 1007.7 |
| 20260509071058 | 3 | 37 | 0.0 | 1.6 | 0.00 | 0.38 | 0.00 | 96 | 1007.8 |
| 20260509070018 | 3 | 14 | 1.6 | 3.2 | 0.00 | 0.38 | 0.00 | 96 | 1007.8 |
| 20260509065019 | 3 | 15 | 0.0 | 1.6 | 0.00 | 0.38 | 0.00 | 96 | 1007.9 |
| 20260509064018 | 3 | 75 | 0.0 | 1.6 | 0.00 | 0.38 | 0.00 | 97 | 1008.1 |
| 20260509063019 | 2 | 92 | 0.0 | 1.6 | 0.00 | 0.38 | 0.00 | 97 | 1008.1 |
| 20260509062019 | 2 | 357 | 0.0 | 1.6 | 0.00 | 0.38 | 0.00 | 96 | 1008.3 |
| 20260509061019 | 3 | 349 | 0.0 | 1.6 | 0.00 | 0.38 | 0.00 | 96 | 1008.4 |
| 20260509060039 | 3 | 13 | 1.6 | 3.2 | 0.00 | 0.38 | 0.00 | 96 | 1008.6 |
| 20260509055019 | 3 | 34 | 0.0 | 1.6 | 0.00 | 0.38 | 0.00 | 96 | 1008.8 |
| 20260509054017 | 3 | 21 | 1.6 | 3.2 | 0.00 | 0.38 | 0.00 | 96 | 1008.9 |
| 20260509053017 | 3 | 13 | 1.6 | 3.2 | 0.00 | 0.38 | 0.00 | 95 | 1008.9 |
| 20260509052037 | 3 | 11 | 1.6 | 3.2 | 0.00 | 0.38 | 0.00 | 95 | 1009.1 |
| 20260509051017 | 4 | 28 | 1.6 | 3.2 | 0.00 | 0.38 | 0.00 | 95 | 1009.1 |
| 20260509050017 | 4 | 35 | 0.0 | 3.2 | 0.00 | 0.38 | 0.00 | 95 | 1009.1 |
| 20260509045017 | 4 | 336 | 1.6 | 3.2 | 0.00 | 0.38 | 0.00 | 95 | 1009.2 |
| 20260509044018 | 4 | 18 | 1.6 | 3.2 | 0.00 | 0.38 | 0.00 | 94 | 1009.3 |
| 20260509043018 | 3 | 34 | 1.6 | 3.2 | 0.00 | 0.38 | 0.00 | 93 | 1009.4 |
| 20260509042018 | 3 | 21 | 1.6 | 3.2 | 0.00 | 0.38 | 0.00 | 92 | 1009.5 |
| 20260509041018 | 3 | 48 | 0.0 | 1.6 | 0.00 | 0.38 | 0.00 | 94 | 1009.5 |
| 20260509040038 | 3 | 353 | 1.6 | 3.2 | 0.00 | 0.38 | 0.00 | 94 | 1009.7 |
| 20260509035018 | 3 | 1 | 1.6 | 3.2 | 0.00 | 0.38 | 0.38 | 94 | 1009.7 |
| 20260509034018 | 3 | 38 | 0.0 | 1.6 | 0.00 | 0.38 | 0.38 | 93 | 1009.8 |
| 20260509033018 | 3 | 81 | 0.0 | 1.6 | 0.00 | 0.38 | 0.38 | 93 | 1009.9 |
| 20260509032019 | 3 | 27 | 1.6 | 3.2 | 0.00 | 0.38 | 0.38 | 91 | 1010.0 |
| 20260509031039 | 3 | 31 | 0.0 | 1.6 | 0.00 | 0.38 | 0.38 | 90 | 1010.1 |
| 20260509030059 | 4 | 21 | 0.0 | 1.6 | 0.00 | 0.38 | 0.38 | 90 | 1010.2 |
| 20260509025037 | 3 | 350 | 0.0 | 1.6 | 0.00 | 0.38 | 0.38 | 90 | 1010.2 |
| 20260509024017 | 4 | 14 | 0.0 | 1.6 | 0.00 | 0.38 | 0.38 | 90 | 1010.3 |
| 20260509023016 | 5 | 8 | 0.0 | 3.2 | 0.00 | 0.38 | 0.38 | 89 | 1010.3 |